カタログに戻る

KESTREL-0A

運用中軍事SSO
NORAD 64624·PAYLOAD·🇺🇸 United States

打ち上げ Jun 26, 2025 から Rocket Lab Launch Complex 1

Loading…

次のパス (今後24時間)

TLE

最新Source: Space-Track

元期: Sep 14, 2026, 11:26 UTC

1 64624U 25138D   26257.47660282  .00006900  00000-0  28407-3 0  9997
2 64624  97.4455 260.9579 0013264 163.7978 196.3686 15.24364083 67540

AllMySatでKESTREL-0Aをリアルタイム追跡

Download on the App Store